#timestamp,LO_Frequency,Hit 
1498492815.4,286047054.8,N
1498492835.2,286047066.3,N
1498492855.0,286047070.8,N
1498492856.0,286047070.8,N
1498492875.8,286047073.7,N
1498492895.6,286047065.2,N
1498492915.4,286047056.1,N
1498492935.3,286047051.1,N
1498492955.1,286047051.0,N
1498492975.8,286047050.0,N
1498492995.7,286047062.3,N
1498493015.5,286047068.8,N
1498493035.3,286047070.8,N
1498493055.2,286047065.0,N
1498493075.9,286047057.9,N
1498493095.7,286047057.7,N
1498493115.6,286047058.3,N
1498493135.4,286047054.7,N
1498493155.2,286047052.5,N
1498493175.0,286047053.5,N
1498493176.0,286047053.5,N
1498493195.8,286047054.0,N
1498493215.6,286047068.3,N
1498493235.4,286047065.0,N
1498493255.3,286047056.0,N
1498493275.1,286047054.1,N
1498493295.8,286047071.5,N
1498493315.7,286047059.0,N
1498493335.5,286047061.9,N
1498493355.3,286047055.5,N
1498493375.2,286047055.0,N
1498493395.9,286047074.1,N
1498493415.7,286047079.4,N
1498493435.6,286047074.3,N
1498493455.4,286047064.5,N
1498493475.2,286047058.6,N
1498493495.0,286047058.3,N
1498493496.0,286047058.3,N
1498493515.8,286047053.2,N
1498493535.6,286047048.5,N
1498493555.4,286047046.5,N
1498493575.3,286047066.8,N
1498493595.1,286047061.4,N
1498493615.8,286047059.1,N
1498493635.7,286047056.8,N
1498493655.5,286047065.6,N
1498493675.3,286047093.6,N
1498493695.2,286047082.2,N
1498493715.9,286047086.6,N
1498493735.7,286047093.1,N
1498493755.6,286047095.8,N
1498493775.4,286047086.0,N
1498493795.2,286047086.6,N
1498493815.1,286047090.3,N
1498493816.0,286047090.3,N
1498493835.8,286047097.5,N
1498493855.6,286047087.1,N
1498493875.4,286047084.8,N
1498493895.3,286047092.0,N
1498493915.1,286047089.6,N
1498493935.8,286047081.9,N
1498493955.7,286047079.2,N
1498493975.5,286047078.0,N
1498493995.3,286047073.6,N
1498494015.2,286047070.3,N
1498494035.9,286047074.4,N
1498494055.7,286047074.3,N
1498494075.6,286047069.2,N
1498494095.4,286047069.2,N
1498494115.2,286047067.9,N
1498494135.0,286047068.9,N
1498494136.0,286047068.9,N
1498494155.8,286047062.5,N
1498494175.6,286047059.4,N
1498494195.4,286047057.8,N
1498494215.3,286047056.8,N
1498494235.1,286047070.9,N
1498494255.8,286047076.6,N
1498494275.7,286047092.4,N
1498494295.5,286047111.6,N
1498494315.3,286047097.5,N
1498494335.2,286047094.6,N
1498494355.9,286047092.1,N
1498494375.7,286047088.5,N
1498494395.6,286047084.9,N
1498494415.4,286047079.7,N
1498494435.2,286047079.8,N
1498494455.0,286047090.7,N
1498494455.9,286047090.7,N
1498494475.8,286047095.0,N
1498494495.6,286047102.0,N
1498494515.4,286047131.9,Y
1498494535.3,286047151.2,Y
1498494555.1,286047158.8,Y
1498494575.9,286047198.4,Y
1498494595.7,286047218.4,Y
1498494615.5,286047227.3,Y
1498494635.4,286047249.7,Y
1498494655.2,286047298.6,Y
1498494675.1,286047335.4,Y
1498494676.0,286047335.4,Y
1498494695.8,286047374.3,Y
1498494715.7,286047400.8,Y
1498494735.5,286047417.2,Y
1498494755.3,286047430.3,Y
1498494775.2,286047436.1,Y
1498494795.0,286047454.8,Y
1498494795.9,286047454.8,Y
1498494815.8,286047489.6,Y
1498494835.6,286047499.5,Y
1498494855.4,286047515.5,Y
1498494875.3,286047536.3,Y
1498494895.1,286047551.5,Y
1498494915.9,286047563.2,Y
1498494935.7,286047570.9,Y
1498494955.5,286047599.1,Y
1498494975.4,286047599.1,Y
1498494995.2,286047596.6,Y
1498495015.1,286047617.1,Y
1498495016.0,286047617.1,Y
1498495035.8,286047640.5,Y
1498495055.7,286047643.5,Y
1498495075.5,286047661.5,Y
1498495095.3,286047646.2,Y
1498495115.2,286047642.5,Y
1498495135.0,286047630.2,Y
1498495135.9,286047630.2,Y
1498495155.8,286047622.7,Y
1498495175.6,286047615.6,Y
1498495195.4,286047607.4,Y
1498495215.3,286047596.8,Y
1498495235.1,286047591.2,Y
1498495255.9,286047587.7,Y
1498495275.7,286047588.2,Y
1498495295.5,286047583.8,Y
1498495315.4,286047576.1,Y
1498495335.2,286047565.8,Y
1498495355.1,286047554.2,Y
1498495356.0,286047554.2,Y
1498495375.8,286047534.5,Y
1498495395.7,286047532.6,Y
1498495415.5,286047520.3,Y
1498495435.3,286047515.8,Y
1498495455.2,286047501.0,Y
1498495475.0,286047486.4,Y
1498495475.9,286047486.4,Y
1498495495.8,286047456.9,Y
1498495515.6,286047450.8,N
1498495535.4,286047454.1,N
1498495555.3,286047473.8,Y
1498495575.1,286047444.4,N
1498495576.0,286047444.4,N
1498495595.8,286047430.9,N
1498495615.7,286047426.2,N
1498495635.5,286047421.5,N
1498495655.3,286047415.6,N
1498495675.2,286047407.9,N
1498495695.9,286047401.4,N
1498495715.7,286047397.9,N
1498495735.5,286047394.2,N
1498495755.4,286047390.5,N
1498495775.2,286047387.6,N
1498495795.0,286047382.2,N
1498495795.9,286047382.2,N
1498495815.8,286047379.8,N
1498495835.6,286047378.5,N
1498495855.4,286047374.2,N
1498495875.3,286047370.5,N
1498495895.1,286047367.4,N
1498495896.0,286047367.4,N
1498495915.8,286047361.4,N
1498495935.7,286047360.1,N
1498495955.5,286047360.6,N
1498495975.3,286047358.5,N
1498495995.2,286047358.8,N
1498496015.9,286047367.7,N
1498496035.7,286047374.2,N
1498496055.6,286047374.9,N
1498496075.4,286047388.3,N
1498496095.2,286047384.1,N
1498496115.0,286047388.9,N
1498496116.0,286047388.9,N
1498496135.8,286047380.5,N
1498496155.6,286047376.4,N
1498496175.4,286047369.2,N
1498496195.3,286047363.7,N
1498496215.1,286047369.6,N
1498496235.8,286047376.2,N
1498496255.7,286047404.1,N
1498496275.5,286047417.2,N
1498496295.3,286047427.9,N
1498496315.2,286047440.0,N
1498496335.9,286047436.0,N
1498496355.7,286047441.6,N
1498496375.6,286047445.4,N
1498496395.4,286047441.2,N
